Location: Linton
(52.0940°N, 0.2850°E)
Time: 22:09:32
(UTC+00:00)

Envisat - Visible Passes

Search period start: 22 November 2017 00:00
Search period end: 02 December 2017 00:00
Orbit: 764 x 766 km, 98.2° (Epoch: 22 November)

Date Brightness Start Highest point End Pass type
(mag) Time Alt. Az. Time Alt. Az. Time Alt. Az.
22 Nov 4.6 18:38:54 21° NNE 18:38:54 21° NNE 18:40:51 10° N visible
22 Nov 5.5 20:19:07 15° NNW 20:19:07 15° NNW 20:20:01 10° NNW visible
23 Nov 4.7 18:01:51 17° NNE 18:01:51 17° NNE 18:03:35 10° N visible
23 Nov 5.1 19:42:03 19° NNW 19:42:03 19° NNW 19:43:29 10° NNW visible
24 Nov 4.9 17:24:47 11° NE 17:24:47 11° NE 17:25:37 10° NNE visible
24 Nov 4.8 19:04:59 21° N 19:04:59 21° N 19:06:40 10° N visible
24 Nov 6.0 20:45:11 10° NW 20:45:11 10° NW 20:45:15 10° NW visible
25 Nov 4.7 18:27:55 19° NNE 18:27:55 19° NNE 18:29:37 10° N visible
25 Nov 5.5 20:08:07 15° NNW 20:08:07 15° NNW 20:08:59 10° NNW visible
26 Nov 4.8 17:50:50 15° NNE 17:50:50 15° NNE 17:52:13 10° NNE visible
26 Nov 5.1 19:31:03 18° NNW 19:31:03 18° NNW 19:32:21 10° NNW visible
27 Nov 4.8 18:53:58 19° N 18:53:58 19° N 18:55:29 10° N visible
27 Nov 5.9 20:34:11 11° NNW 20:34:11 11° NNW 20:34:19 10° NNW visible
28 Nov 4.8 18:16:52 17° NNE 18:16:52 17° NNE 18:18:20 10° N visible
28 Nov 5.4 19:57:05 15° NNW 19:57:05 15° NNW 19:57:55 10° NNW visible
29 Nov 4.9 17:39:47 13° NNE 17:39:47 13° NNE 17:40:46 10° NNE visible
29 Nov 5.1 19:20:00 18° N 19:20:00 18° N 19:21:13 10° NNW visible
30 Nov 4.9 18:42:54 18° N 18:42:54 18° N 18:44:16 10° N visible
30 Nov 5.8 20:23:06 11° NNW 20:23:06 11° NNW 20:23:20 10° NNW visible
01 Dec 4.9 18:05:48 15° NNE 18:05:48 15° NNE 18:07:02 10° N visible
01 Dec 5.4 19:46:00 15° NNW 19:46:00 15° NNW 19:46:50 10° NNW visible
